When you browse on this site, cookies collect data to enhance your experience and personalize the content and advertising you see.
Visit our Privacy Policy to learn more. By continuing to use the site, you agree to this use of cookies and data.
  • In Lithuania
  • List of Countries
  • For 7 days
  • Water Temperature
  • Weather Map
  • Weather Widgets
  • user-avatar
    Login

    Hourly Weather Verhnee Golenkovo

    Today, 19 August, Monday

    Time Temperature Precipitation Wind Pressure Humidity
    00:00 +15°C° 0 mm 2 mps 739 mmHg 99%
    01:00 +15°C° 0 mm 2 mps 739 mmHg 99%
    02:00 +15°C° 0 mm 2 mps 740 mmHg 99%
    03:00 +15°C° 0 mm 2 mps 740 mmHg 99%
    04:00 +15°C° 0 mm 2 mps 740 mmHg 98%
    05:00 +15°C° 0 mm 2 mps 740 mmHg 98%
    06:00 +15°C° 0 mm 2 mps 741 mmHg 97%
    07:00 +15°C° 0 mm 2 mps 741 mmHg 96%
    08:00 +16°C° 0 mm 2 mps 741 mmHg 94%
    09:00 +17°C° 0 mm 2 mps 741 mmHg 85%
    10:00 +19°C° 0 mm 2 mps 742 mmHg 77%
    11:00 +21°C° 0 mm 2 mps 742 mmHg 68%
    12:00 +23°C° 0 mm 2 mps 742 mmHg 64%
    13:00 +24°C° 0 mm 2 mps 742 mmHg 61%
    14:00 +25°C° 0 mm 2 mps 743 mmHg 57%
    15:00 +25°C° 0 mm 2 mps 742 mmHg 61%
    16:00 +25°C° 0 mm 2 mps 742 mmHg 65%
    17:00 +24°C° 0 mm 2 mps 742 mmHg 70%
    18:00 +23°C° 0 mm 2 mps 743 mmHg 77%
    19:00 +20°C° 0 mm 2 mps 743 mmHg 83%
    20:00 +18°C° 0 mm 2 mps 743 mmHg 90%
    21:00 +18°C° 0 mm 2 mps 743 mmHg 92%
    22:00 +18°C° 0 mm 2 mps 743 mmHg 94%
    23:00 +17°C° 0 mm 2 mps 743 mmHg 95%

    Tomorrow, 20 August, Tuesday

    Time Temperature Precipitation Wind Pressure Humidity
    00:00 +17°C° 0.3 mm 2 mps 743 mmHg 96%
    01:00 +17°C° 0.3 mm 2 mps 743 mmHg 97%
    02:00 +17°C° 0.3 mm 2 mps 743 mmHg 98%
    03:00 +17°C° 0.1 mm 2 mps 744 mmHg 98%
    04:00 +17°C° 0.1 mm 2 mps 744 mmHg 98%
    05:00 +17°C° 0.1 mm 2 mps 744 mmHg 98%
    06:00 +18°C° 0.2 mm 2 mps 744 mmHg 97%
    07:00 +20°C° 0.2 mm 1 mps 744 mmHg 96%
    08:00 +21°C° 0.2 mm 1 mps 745 mmHg 95%
    09:00 +22°C° 0 mm 1 mps 745 mmHg 92%
    10:00 +23°C° 0 mm 1 mps 745 mmHg 88%
    11:00 +23°C° 0 mm 1 mps 745 mmHg 85%
    12:00 +23°C° 0.3 mm 1 mps 746 mmHg 86%
    13:00 +23°C° 0.3 mm 1 mps 746 mmHg 87%
    14:00 +23°C° 0.3 mm 1 mps 746 mmHg 87%
    15:00 +23°C° 0.4 mm 1 mps 746 mmHg 87%
    16:00 +23°C° 0.4 mm 1 mps 746 mmHg 87%
    17:00 +23°C° 0.4 mm 1 mps 746 mmHg 87%
    18:00 +22°C° 0.1 mm 1 mps 746 mmHg 90%
    19:00 +20°C° 0.1 mm 1 mps 746 mmHg 93%
    20:00 +19°C° 0.1 mm 1 mps 746 mmHg 96%
    21:00 +18°C° 0 mm 1 mps 747 mmHg 96%
    22:00 +18°C° 0 mm 1 mps 747 mmHg 96%
    23:00 +16°C° 0 mm 1 mps 747 mmHg 96%

    Day after tomorrow, 21 August, Wednesday

    Time Temperature Precipitation Wind Pressure Humidity
    00:00 +16°C° 0 mm 1 mps 747 mmHg 96%
    01:00 +15°C° 0 mm 1 mps 747 mmHg 95%
    02:00 +15°C° 0 mm 1 mps 748 mmHg 95%
    03:00 +15°C° 0 mm 1 mps 748 mmHg 95%
    04:00 +14°C° 0 mm 1 mps 748 mmHg 95%
    05:00 +14°C° 0 mm 1 mps 748 mmHg 95%
    06:00 +15°C° 0 mm 1 mps 748 mmHg 91%
    07:00 +18°C° 0 mm 1 mps 748 mmHg 88%
    08:00 +19°C° 0 mm 1 mps 748 mmHg 85%
    09:00 +21°C° 0 mm 1 mps 748 mmHg 81%
    10:00 +21°C° 0 mm 2 mps 748 mmHg 77%
    11:00 +24°C° 0 mm 2 mps 748 mmHg 73%
    12:00 +24°C° 0.1 mm 2 mps 747 mmHg 75%
    13:00 +24°C° 0.1 mm 2 mps 747 mmHg 77%
    14:00 +24°C° 0.1 mm 3 mps 746 mmHg 79%
    15:00 +22°C° 1.4 mm 3 mps 746 mmHg 84%
    16:00 +21°C° 1.4 mm 3 mps 745 mmHg 89%
    17:00 +20°C° 1.4 mm 3 mps 745 mmHg 94%
    18:00 +20°C° 0.8 mm 2 mps 744 mmHg 95%
    19:00 +20°C° 0.8 mm 2 mps 744 mmHg 96%
    20:00 +20°C° 0.8 mm 2 mps 744 mmHg 97%
    21:00 +20°C° 0.5 mm 2 mps 744 mmHg 97%
    22:00 +20°C° 0.5 mm 2 mps 743 mmHg 96%
    23:00 +19°C° 0.5 mm 2 mps 743 mmHg 96%

    22 August, Thursday

    Time Temperature Precipitation Wind Pressure Humidity
    00:00 +19°C° 0.9 mm 3 mps 744 mmHg 97%
    01:00 +19°C° 0.9 mm 3 mps 744 mmHg 97%
    02:00 +19°C° 0.9 mm 3 mps 744 mmHg 97%
    03:00 +17°C° 0.3 mm 3 mps 744 mmHg 97%
    04:00 +16°C° 0.3 mm 3 mps 745 mmHg 97%
    05:00 +14°C° 0.3 mm 3 mps 745 mmHg 97%
    06:00 +14°C° 0 mm 3 mps 745 mmHg 95%
    07:00 +14°C° 0 mm 3 mps 746 mmHg 94%
    08:00 +14°C° 0 mm 3 mps 746 mmHg 92%
    09:00 +16°C° 0 mm 3 mps 747 mmHg 84%
    10:00 +17°C° 0 mm 3 mps 747 mmHg 76%
    11:00 +19°C° 0 mm 3 mps 747 mmHg 69%
    12:00 +20°C° 0 mm 3 mps 747 mmHg 65%
    13:00 +21°C° 0 mm 3 mps 747 mmHg 62%
    14:00 +22°C° 0 mm 3 mps 748 mmHg 58%
    15:00 +21°C° 0 mm 2 mps 747 mmHg 61%
    16:00 +21°C° 0 mm 2 mps 747 mmHg 64%
    17:00 +20°C° 0 mm 2 mps 747 mmHg 67%
    18:00 +18°C° 0 mm 2 mps 747 mmHg 72%
    19:00 +16°C° 0 mm 2 mps 747 mmHg 76%
    20:00 +14°C° 0 mm 1 mps 747 mmHg 81%
    21:00 +14°C° 0 mm 1 mps 748 mmHg 83%
    22:00 +13°C° 0 mm 1 mps 748 mmHg 84%
    23:00 +12°C° 0 mm 1 mps 748 mmHg 86%

    23 August, Friday

    Time Temperature Precipitation Wind Pressure Humidity
    00:00 +12°C° 0 mm 1 mps 748 mmHg 88%
    01:00 +11°C° 0 mm 1 mps 748 mmHg 90%
    02:00 +11°C° 0 mm 1 mps 748 mmHg 92%
    03:00 +11°C° 0 mm 1 mps 748 mmHg 92%
    04:00 +11°C° 0 mm 1 mps 748 mmHg 93%
    05:00 +11°C° 0 mm 1 mps 748 mmHg 93%
    06:00 +13°C° 0 mm 1 mps 748 mmHg 86%
    07:00 +15°C° 0 mm 1 mps 748 mmHg 79%
    08:00 +19°C° 0 mm 1 mps 748 mmHg 72%
    09:00 +20°C° 0.1 mm 1 mps 748 mmHg 68%
    10:00 +20°C° 0.1 mm 1 mps 748 mmHg 65%
    11:00 +20°C° 0.1 mm 2 mps 748 mmHg 61%
    12:00 +20°C° 0.4 mm 2 mps 748 mmHg 63%
    13:00 +20°C° 0.4 mm 2 mps 748 mmHg 65%
    14:00 +20°C° 0.4 mm 2 mps 748 mmHg 67%
    15:00 +19°C° 0.2 mm 2 mps 747 mmHg 70%
    16:00 +19°C° 0.2 mm 2 mps 747 mmHg 73%
    17:00 +19°C° 0.2 mm 1 mps 747 mmHg 76%
    18:00 +16°C° 0 mm 1 mps 747 mmHg 79%
    19:00 +15°C° 0 mm 1 mps 747 mmHg 83%
    20:00 +13°C° 0 mm 1 mps 747 mmHg 86%
    21:00 +12°C° 0 mm 1 mps 748 mmHg 88%
    22:00 +12°C° 0 mm 1 mps 748 mmHg 89%
    23:00 +11°C° 0 mm 1 mps 748 mmHg 90%

    24 August, Saturday

    Time Temperature Precipitation Wind Pressure Humidity
    00:00 +11°C° 0 mm 1 mps 748 mmHg 92%
    01:00 +9°C° 0 mm 2 mps 748 mmHg 93%
    02:00 +9°C° 0 mm 2 mps 748 mmHg 95%
    03:00 +9°C° 0 mm 2 mps 748 mmHg 95%
    04:00 +9°C° 0 mm 2 mps 748 mmHg 96%
    05:00 +8°C° 0 mm 2 mps 748 mmHg 97%
    06:00 +10°C° 0 mm 2 mps 749 mmHg 91%
    07:00 +13°C° 0 mm 2 mps 749 mmHg 86%
    08:00 +15°C° 0 mm 2 mps 749 mmHg 80%
    09:00 +16°C° 0 mm 2 mps 749 mmHg 72%
    10:00 +18°C° 0 mm 2 mps 749 mmHg 64%
    11:00 +19°C° 0 mm 2 mps 749 mmHg 56%
    12:00 +20°C° 0 mm 2 mps 749 mmHg 54%
    13:00 +20°C° 0 mm 2 mps 749 mmHg 52%
    14:00 +20°C° 0 mm 2 mps 749 mmHg 51%
    15:00 +20°C° 0 mm 2 mps 749 mmHg 56%
    16:00 +20°C° 0 mm 2 mps 749 mmHg 61%
    17:00 +20°C° 0 mm 1 mps 749 mmHg 66%
    18:00 +18°C° 0 mm 1 mps 749 mmHg 73%
    19:00 +15°C° 0 mm 1 mps 749 mmHg 79%
    20:00 +13°C° 0 mm 1 mps 749 mmHg 85%
    21:00 +13°C° 0 mm 1 mps 749 mmHg 88%
    22:00 +12°C° 0 mm 1 mps 749 mmHg 90%
    23:00 +12°C° 0 mm 1 mps 749 mmHg 93%
    Show more